Regional Weather Roundup
Issued by NWS Charleston, SC

Current Version | Previous Version | Text Only | Print | Product List | Glossary On
Versions: 1 2 3 4 5 6 7 8 9 10 11 12 13 14 15 16 17 18 19 20 21 22 23 24 25 26 27 28 29 30 31 32 33 34 35 36 37 38 39 40 41 42 43 44 45 46 47 48 49 50
000 ASUS42 KCHS 230825 RWRCHS REGIONAL WEATHER ROUNDUP NATIONAL WEATHER SERVICE CHARLESTON SC 400 AM EDT TUE SEP 23 2014 NOTE: "FAIR" INDICATES FEW OR NO CLOUDS BELOW 12,000 FEET WITH NO SIGNIFICANT WEATHER AND/OR OBSTRUCTIONS TO VISIBILITY. NOT ALL STATIONS ARE QUALITY CONTROLLED BY THE NATIONAL WEATHER SERVICE. USE DATA WITH CAUTION...ESPECIALLY DEWPOINT OBSERVATIONS. SCZ027-030-031-034>040-042>050-230900- ...SOUTH CAROLINA... CITY SKY/WX TMP DP RH WIND PRES REMARKS N CHARLESTON CLOUDY 68 62 81 NE10 30.07S WATERFRONT PRK NOT AVBL FORT JOHNSON NOT AVBL MOUNT PLEASANT FAIR 66 64 94 NE7 30.07R JOHNS ISLAND MOSUNNY 68 66 94 NE7 30.07R PINOPOLIS N/A 70 64 83 NE18 29.97F MONCKS CORNER N/A 68 64 88 NE8 30.07S SUMMERVILLE NOT AVBL BEAUFORT MCAS CLOUDY 69 64 84 MISG 30.05R BEAUFORT ARPT PTSUNNY 70 66 88 NE8 30.06R HILTON HEAD IS CLOUDY 72 64 78 NE7 30.06R GEORGETOWN NOT AVBL WALTERBORO CLOUDY 68 N/A N/A E5 30.08R ORANGEBURG CLOUDY 64 60 87 NE7 30.07F BARNWELL RAIN 64 64 100 E6 30.10S AIKEN FAIR 64 64 100 NE8 30.12F MANNING FAIR 64 N/A N/A NE6 30.08F KINGSTREE NOT AVBL COLUMBIA LGT RAIN 66 60 81 N7 30.10F SUMTER CLOUDY 64 60 88 NE7 30.08S FLORENCE CLOUDY 64 61 90 N7 30.11S MYRTLE BEACH CLOUDY 66 61 82 N10 30.08F N MYRTLE BEACH CLOUDY 65 62 90 N7 30.09S $$ GAZ063-065-086>088-099>101-113>116-118-119-134-136>141-150-230900- ...GEORGIA... CITY SKY/WX TMP DP RH WIND PRES REMARKS SAVANNAH ARPT CLOUDY 68 61 78 NW10 30.06R HUNTER AAF CLOUDY 68 62 82 NW10 30.04R FORT STEWART CLOUDY 67 63 86 N7 30.05R STATESBORO NOT AVBL SYLVANIA RAIN 67 66 97 E6 30.10R CLAXTON LGT RAIN 66 66 100 CALM 30.10R THOMSON CLOUDY 65 65 100 CALM 30.16R AUGUSTA-BUSH CLOUDY 65 62 90 CALM 30.10R AUGUSTA-DANIEL CLOUDY 67 61 81 NE9 30.09S SWAINSBORO CLOUDY 68 68 100 E5 30.08F VIDALIA LGT RAIN 64 64 100 CALM 30.08S ALMA CLOUDY 68 64 87 NE5 30.05F WAYCROSS PTCLDY 72 67 84 NE6 30.05S JESUP CLOUDY 72 66 83 N8 30.07R BRUNSWICK CLOUDY 73 64 73 NE8 30.04R SAINT SIMONS CLOUDY 73 68 84 NE13 30.02R $$ SCZ027-028-034-036>038-045-046-048>050-GAZ119-141-230900- ...LAKE AND SUPPLEMENTAL COASTAL OBSERVATIONS... STATION/POSITION TIME TEMP WIND PRES WAVE SWELL AIR SEA DIR/SP/G HT/PER HT/PER/DIR (UTC) (F) (DEG/KT/KT) (MB) (FT/S) (FT/S/D) UPR LAKE MARION NOT AVBL WINYAH BAY 0800 66 350/ 6 1018.0S LAKE MURRAY 0700 67 30/ 5/ 7 1018.6F ACE BASIN NERRS 0800 67 50/ 4 1017.0R FORT PULASKI 0800 74 40/ 6/ 9 1017.8R SAPELO ISLAND 0800 74 70/ 11 1017.0S $$ ANZ835-935-AMZ111-154-330-350-352-354-374-450-454-472-230900- ...C-MAN AND BUOY OBSERVATIONS... STATION/POSITION TIME TEMP WIND PRES WAVE SWELL AIR SEA DIR/SP/G HT/PER HT/PER/DIR (UTC) (F) (DEG/KT/KT) (MB) (FT/S) (FT/S/D) FOLLY BEACH CMAN 0800 69 30/ 15/ 18 1018.4R BUOY 41004 0800 75 81 360/ 25/ 31 1015.0F 4/ 5 2/ 7 BUOY 41008 0800 75 82 80/ 17/ 21 1016.4F 5/ 6 5E ST. MARYS GA 0800 83 N/A 4/ 5 FRYING PAN BUOY NOT AVBL BUOY 41025 0800 73 20/ 17/ 21 1019.6R 4/ 5 2/ 70/12 CAPE LOOKOUT NC 0800 73 40/ 21/ 24 1019.3S BUOY 41002 0736 79 81 70/ 4/ 6 1017.8F 3/ 7 3/120/ 7 BUOY 41010 0800 78 84 140/ 4/ 6 1016.1F 2/ 8 2/ 70/ 8 BUOY 41012 NOT AVBL ST AUGUSTINE FL 0800 78 120/ 6/ 8 1015.8F CAPERS NEARSHORE 0700 70 20/ 16/ 19 N/A FRIPP NEARSHORE NOT AVBL $$

USA.gov is the U.S. government's official web portal to all federal, state and local government web resources and services.